Regional Weather Roundup
Issued by NWS

Home | Current Version | Previous Version | Text Only | Print | Product List | Glossary On
Versions: 1 2 3 4 5 6 7 8 9 10 11 12 13 14 15 16 17 18 19 20 21 22 23 24 25 26 27 28 29 30 31 32 33 34 35 36 37 38 39 40 41 42 43 44 45 46 47 48 49 50
000
ASUS43 KOAX 250503
RWRNE

WEATHER ROUNDUP FOR NEBRASKA
NATIONAL WEATHER SERVICE OMAHA NE
1200 AM CDT FRI MAY 25 2018

NOTES: SATELLITE DATA IS BEING USED TO AUGMENT CLOUD COVER ABOVE
       12000 FEET.
       "FAIR" INDICATES FEW OR NO CLOUDS BELOW 12,000 FEET WITH NO
       SIGNIFICANT WEATHER AND/OR OBSTRUCTIONS TO VISIBILITY.


NEZ001>004-019>022-054>056-250600-
NEBRASKA PANHANDLE

CITY           SKY/WX    TMP DP  RH WIND       PRES   REMARKS
SCOTTSBLUFF    CLEAR     60  52  74 NE7       30.01R
ALLIANCE       CLEAR     57  52  83 S3        30.00R
CHADRON        CLEAR     60  55  83 W7        29.95R
GORDON         FAIR      57  53  86 CALM      29.97S
KIMBALL        PTCLDY    57  49  75 SW7       30.08S
SIDNEY         CLEAR     55  51  86 SW8       30.04F
$$

NEZ057>060-069>072-079>082-250600-
SOUTHWEST NEBRASKA

CITY           SKY/WX    TMP DP  RH WIND       PRES   REMARKS
NORTH PLATTE   CLEAR     61  58  90 SE6       29.95R
IMPERIAL       CLEAR     62  58  86 CALM      29.98R
LEXINGTON      CLOUDY    74  51  43 SW18G24   29.92S
MCCOOK         PTCLDY    68  51  54 SW9       29.95R
OGALLALA       CLEAR     58  53  83 CALM      29.98S
$$

NEZ005>010-023>029-035>040-094-250600-
NORTH CENTRAL NEBRASKA

CITY           SKY/WX    TMP DP  RH WIND       PRES   REMARKS
VALENTINE      PTCLDY    67  60  78 CALM      29.92S
AINSWORTH      MOCLDY    63  61  92 S6        29.91F
BROKEN BOW     MOCLDY    67  63  87 CALM      29.93S
O`NEILL        PTCLDY    72  64  76 SE15      29.87F
ORD            CLOUDY    70  60  70 SE6       29.90F
THEDFORD       PTCLDY    66  63  89 CALM      29.96R
$$

NEZ041-046>049-061>064-073>077-083>087-250600-
SOUTH CENTRAL NEBRASKA

CITY           SKY/WX    TMP DP  RH WIND       PRES   REMARKS
GRAND ISLAND   CLOUDY    73  61  65 S10       29.93F
AURORA         MOCLDY    73  60  65 S8        29.94S
HASTINGS       CLOUDY    73  62  68 S8        29.93F
HEBRON         CLOUDY    72  64  76 S8        29.94R
HOLDREGE       CLOUDY    71  59  66 W5        29.92F
YORK           MOCLDY    72  64  78 S6        29.95R
$$

NEZ011>018-030>034-042>045-250600-
NORTHEAST NEBRASKA

CITY           SKY/WX    TMP DP  RH WIND       PRES   REMARKS
NORFOLK        CLOUDY    73  59  61 S9        29.90S
ALBION         CLOUDY    71  59  66 CALM      29.92F
BLAIR          PTCLDY    75  64  67 S12       29.93S
COLUMBUS       PTCLDY    76  61  59 S9        29.93R
FREMONT        CLEAR     76  62  60 SE8       29.92S
TEKAMAH        CLOUDY    73  66  78 S10       29.90S
WAYNE          LGT RAIN  72  64  76 S6        29.90R
$$

NEZ050>053-065>068-078-088>093-250600-
SOUTHEAST NEBRASKA

CITY           SKY/WX    TMP DP  RH WIND       PRES   REMARKS
LINCOLN        MOCLDY    72  62  71 S9        29.93R
OMAHA EPPLEY   MOCLDY    76  64  66 S13       29.93R
BEATRICE       CLOUDY    71  64  76 S10       29.94F
FALLS CITY     PTCLDY    70  62  76 S8        29.96S
NEBRASKA CITY  PTCLDY    71  65  82 S12       29.96S
PLATTSMOUTH    PTCLDY    72  65  78 S7        29.95S
$$

NEZ044-045-051>053-067-250600-
OMAHA AREA

CITY           SKY/WX    TMP DP  RH WIND       PRES   REMARKS
OMAHA EPPLEY   MOCLDY    76  64  66 S13       29.93R
BLAIR          PTCLDY    75  64  67 S12       29.93S
FREMONT        CLEAR     76  62  60 SE8       29.92S
MILLARD        CLOUDY    74  66  75 SE6       29.93S
OFFUTT AFB     MOCLDY    71  64  79 SE7       29.93R
PLATTSMOUTH    PTCLDY    72  65  78 S7        29.95S
WAHOO          FAIR      72  59  63 S9        29.92S
$$



USA.gov is the U.S. government's official web portal to all federal, state and local government web resources and services.